Weather History for Cooperstown, ND

Change the Weather History Date:

Tuesday, April 23, 2013

  Actual Average (KJMS) Record (KJMS)
Temperature  
Mean Temperature 22 °F 46 °F  
Max Temperature 35 °F 59 °F 89 °F (1990)
Min Temperature 10 °F 33 °F 13 °F (1902)
Degree Days  
Heating Degree Days 42 19  
Month to date heating degree days 558  
Since 1 July heating degree days 8478  
Cooling Degree Days 0 0  
Month to date cooling degree days 0  
Year to date cooling degree days 0  
Moisture  
Dew Point 22 °F    
Average Humidity 91    
Maximum Humidity 100    
Minimum Humidity 70    
Precipitation  
Precipitation 0.00 in 0.04 in 1.56 in (1976)
Month to date precipitation 0.80  
Year to date precipitation 2.49  
Sea Level Pressure  
Sea Level Pressure 30.15 in    
Wind  
Wind Speed 9 mph (West)    
Max Wind Speed 14 mph    
Max Gust Speed -    
Visibility 10 miles    
Events      
T = Trace of Precipitation, MM = Missing Value Source: NWS Daily Summary

Daily Weather History Graph

Daily Weather History Graph

Search for Another Location

Airport:

Trip Planner

Search our weather history database for the weather conditions in past years. The results will help you decide how hot, cold, wet, or windy it might be!

Date:

Astronomy

Apr. 23, 2013 Rise Set
Actual Time 6:28 AM CDT 8:33 PM CDT
Civil Twilight 5:55 AM CDT 9:06 PM CDT
Nautical Twilight 5:14 AM CDT 9:47 PM CDT
Astronomical Twilight 4:29 AM CDT 10:34 PM CDT
Moon 6:23 PM CDT (4/23) 5:07 AM CDT (4/23)
Length of Visible Light 15h 11m
Length of Day
14h 04m
Waxing Gibbous, 94% of the Moon is Illuminated
Apr 23
Waxing Gibbous
Apr 25
Full
May 2
Last Quarter
May 9
New
May 17
First Quarter

Hourly Weather History & Observations

Time (CDT) Temp. Windchill Dew Point Humidity Pressure Visibility Wind Dir Wind Speed Gust Speed Precip Events Conditions
12:15 AM 19.4 °F 7.2 °F 17.6 °F 93% 30.33 in 10.0 mi WNW 11.5 mph - N/A   Clear
12:35 AM 17.6 °F 6.4 °F 17.6 °F 100% 30.32 in 10.0 mi WNW 9.2 mph - N/A   Clear
12:55 AM 17.6 °F 5.7 °F 17.6 °F 100% 30.32 in 10.0 mi WNW 10.4 mph - N/A   Clear
1:15 AM 17.6 °F 5.0 °F 17.6 °F 100% 30.32 in 10.0 mi WNW 11.5 mph - N/A   Clear
1:35 AM 17.6 °F 6.4 °F 17.6 °F 100% 30.31 in 10.0 mi WNW 9.2 mph - N/A   Clear
1:55 AM 17.6 °F 5.7 °F 15.8 °F 93% 30.30 in 10.0 mi WNW 10.4 mph - N/A   Clear
2:15 AM 19.4 °F 6.6 °F 17.6 °F 93% 30.30 in 10.0 mi WNW 12.7 mph - N/A   Clear
2:35 AM 15.8 °F 3.4 °F 14.0 °F 93% 30.29 in 10.0 mi West 10.4 mph - N/A   Clear
2:55 AM 14.0 °F 2.0 °F 14.0 °F 100% 30.28 in 10.0 mi West 9.2 mph - N/A   Clear
3:15 AM 14.0 °F 2.0 °F 14.0 °F 100% 30.27 in 10.0 mi WNW 9.2 mph - N/A   Clear
3:35 AM 17.6 °F 6.4 °F 15.8 °F 93% 30.27 in 10.0 mi West 9.2 mph - N/A   Clear
3:55 AM 15.8 °F 3.4 °F 15.8 °F 100% 30.26 in 10.0 mi WNW 10.4 mph - N/A   Clear
4:15 AM 15.8 °F 5.1 °F 15.8 °F 100% 30.26 in 10.0 mi WNW 8.1 mph - N/A   Clear
4:35 AM 14.0 °F 2.9 °F 14.0 °F 100% 30.26 in 10.0 mi West 8.1 mph - N/A   Clear
4:55 AM 14.0 °F 3.9 °F 14.0 °F 100% 30.25 in 10.0 mi WNW 6.9 mph - N/A   Clear
5:15 AM 14.0 °F 5.1 °F 14.0 °F 100% 30.25 in 10.0 mi WNW 5.8 mph - N/A   Clear
5:55 AM 10.4 °F -1.5 °F 10.4 °F 100% 30.24 in 10.0 mi West 8.1 mph - N/A   Clear
6:15 AM 10.4 °F -1.5 °F 10.4 °F 100% 30.24 in 10.0 mi West 8.1 mph - N/A   Clear
6:35 AM 10.4 °F -1.5 °F 10.4 °F 100% 30.23 in 10.0 mi West 8.1 mph - N/A   Clear
6:55 AM 10.4 °F -3.3 °F 10.4 °F 100% 30.23 in 10.0 mi West 10.4 mph - N/A   Clear
7:15 AM 12.2 °F 2.9 °F 10.4 °F 92% 30.23 in 10.0 mi West 5.8 mph - N/A   Clear
7:35 AM 14.0 °F 5.1 °F 12.2 °F 93% 30.23 in 10.0 mi WNW 5.8 mph - N/A   Clear
7:55 AM 14.0 °F 3.9 °F 14.0 °F 100% 30.23 in 10.0 mi WNW 6.9 mph - N/A   Clear
8:15 AM 14.0 °F 5.1 °F 14.0 °F 100% 30.23 in 10.0 mi West 5.8 mph - N/A   Clear
8:35 AM 15.8 °F 7.2 °F 15.8 °F 100% 30.23 in 10.0 mi West 5.8 mph - N/A   Clear
8:55 AM 17.6 °F 9.3 °F 15.8 °F 93% 30.23 in 10.0 mi WSW 5.8 mph - N/A   Clear
9:15 AM 17.6 °F 8.2 °F 17.6 °F 100% 30.22 in 10.0 mi West 6.9 mph - N/A   Clear
9:35 AM 19.4 °F 11.5 °F 19.4 °F 100% 30.21 in 10.0 mi West 5.8 mph - N/A   Clear
9:55 AM 21.2 °F 12.6 °F 19.4 °F 93% 30.21 in 10.0 mi West 6.9 mph - N/A   Clear
10:15 AM 23.0 °F 14.7 °F 21.2 °F 93% 30.20 in 10.0 mi West 6.9 mph - N/A   Clear
10:35 AM 24.8 °F 16.1 °F 23.0 °F 93% 30.20 in 10.0 mi West 8.1 mph - N/A   Clear
10:55 AM 24.8 °F 17.9 °F 23.0 °F 93% 30.19 in 10.0 mi West 5.8 mph - N/A   Clear
11:15 AM 26.6 °F 20.0 °F 24.8 °F 93% 30.19 in 10.0 mi West 5.8 mph - N/A   Clear
11:35 AM 26.6 °F 20.0 °F 24.8 °F 93% 30.18 in 10.0 mi WSW 5.8 mph - N/A   Clear
11:55 AM 28.4 °F 22.2 °F 24.8 °F 86% 30.18 in 10.0 mi WSW 5.8 mph - N/A   Clear
12:15 PM 30.2 °F 22.6 °F 24.8 °F 80% 30.17 in 10.0 mi West 8.1 mph - N/A   Clear
12:35 PM 30.2 °F 21.9 °F 24.8 °F 80% 30.17 in 10.0 mi WSW 9.2 mph - N/A   Clear
12:55 PM 32.0 °F 24.8 °F 24.8 °F 75% 30.16 in 10.0 mi WSW 8.1 mph - N/A   Clear
1:15 PM 32.0 °F 24.2 °F 24.8 °F 75% 30.15 in 10.0 mi SW 9.2 mph - N/A   Clear
1:35 PM 32.0 °F 24.2 °F 24.8 °F 75% 30.14 in 10.0 mi WSW 9.2 mph - N/A   Clear
1:55 PM 32.0 °F 23.6 °F 24.8 °F 75% 30.12 in 10.0 mi WSW 10.4 mph - N/A   Clear
2:15 PM 32.0 °F 24.2 °F 24.8 °F 75% 30.12 in 10.0 mi SW 9.2 mph - N/A   Clear
2:35 PM 32.0 °F 24.2 °F 24.8 °F 75% 30.11 in 10.0 mi SW 9.2 mph - N/A   Clear
2:55 PM 32.0 °F 23.0 °F 24.8 °F 75% 30.10 in 10.0 mi SW 11.5 mph - N/A   Clear
3:15 PM 33.8 °F 25.3 °F 26.6 °F 75% 30.09 in 10.0 mi WSW 11.5 mph - N/A   Clear
3:35 PM 33.8 °F 25.8 °F 26.6 °F 75% 30.09 in 10.0 mi SW 10.4 mph - N/A   Clear
3:55 PM 35.6 °F 28.0 °F 26.6 °F 70% 30.08 in 10.0 mi WSW 10.4 mph - N/A   Clear
4:15 PM 35.6 °F 28.0 °F 28.4 °F 75% 30.07 in 10.0 mi WSW 10.4 mph - N/A   Clear
4:35 PM 35.6 °F 26.6 °F 28.4 °F 75% 30.06 in 10.0 mi WSW 13.8 mph - N/A   Clear
4:55 PM 35.6 °F 28.0 °F 28.4 °F 75% 30.06 in 10.0 mi West 10.4 mph - N/A   Clear
5:15 PM 35.6 °F 28.6 °F 28.4 °F 75% 30.05 in 10.0 mi West 9.2 mph - N/A   Clear
5:35 PM 35.6 °F 28.6 °F 30.2 °F 81% 30.04 in 10.0 mi West 9.2 mph - N/A   Clear
5:55 PM 35.6 °F 29.2 °F 30.2 °F 81% 30.04 in 10.0 mi West 8.1 mph - N/A   Clear
6:15 PM 35.6 °F 28.6 °F 32.0 °F 87% 30.03 in 10.0 mi West 9.2 mph - N/A   Clear
6:35 PM 35.6 °F 28.6 °F 32.0 °F 87% 30.03 in 10.0 mi West 9.2 mph - N/A   Clear
6:55 PM 35.6 °F 29.2 °F 32.0 °F 87% 30.03 in 10.0 mi West 8.1 mph - N/A   Clear
7:15 PM 35.6 °F 28.0 °F 32.0 °F 87% 30.02 in 10.0 mi WNW 10.4 mph - N/A   Clear
7:35 PM 35.6 °F 29.2 °F 30.2 °F 81% 30.02 in 10.0 mi WNW 8.1 mph - N/A   Clear
7:55 PM 33.8 °F 27.0 °F 30.2 °F 87% 30.02 in 10.0 mi WNW 8.1 mph - N/A   Clear
8:15 PM 32.0 °F 25.6 °F 30.2 °F 93% 30.02 in 10.0 mi WNW 6.9 mph - N/A   Clear
8:35 PM 32.0 °F 24.8 °F 30.2 °F 93% 30.02 in 10.0 mi WNW 8.1 mph - N/A   Clear
8:55 PM 30.2 °F 23.4 °F 28.4 °F 93% 30.02 in 10.0 mi WNW 6.9 mph - N/A   Clear
9:15 PM 30.2 °F 22.6 °F 28.4 °F 93% 30.02 in 10.0 mi WNW 8.1 mph - N/A   Clear
9:35 PM 28.4 °F 23.3 °F 28.4 °F 100% 30.02 in 10.0 mi NW 4.6 mph - N/A   Clear
9:55 PM 26.6 °F - 26.6 °F 100% 30.02 in 10.0 mi Calm Calm - N/A   Clear
10:15 PM 26.6 °F 21.2 °F 26.6 °F 100% 30.02 in 10.0 mi West 4.6 mph - N/A   Clear
10:35 PM 26.6 °F 20.0 °F 26.6 °F 100% 30.01 in 10.0 mi West 5.8 mph - N/A   Clear
10:55 PM 24.8 °F 16.9 °F 24.8 °F 100% 30.01 in 10.0 mi West 6.9 mph - N/A   Clear
11:15 PM 24.8 °F 17.9 °F 24.8 °F 100% 30.00 in 10.0 mi WNW 5.8 mph - N/A   Clear
11:35 PM 24.8 °F 20.5 °F 24.8 °F 100% 30.00 in 10.0 mi NW 3.5 mph - N/A   Clear
11:55 PM 24.8 °F - 24.8 °F 100% 29.99 in 10.0 mi Calm Calm - N/A   Clear